sat.trackr.live / text

‹ back to catalog

STARLINK-36886

NORAD 68175 · 2026-050J

PAYLOAD ACTIVE UNKNOWN

§ Identity

Operator
Country
US
Launch date
2026-03-14
Launch site
AFETR
Launch vehicle
Mass (kg)
RCS (m²)

Purposes: comms

External: N2YO · Heavens-Above · Gunter

§ Orbital elements

Epoch: 2026-09-19T00:31:15.731040Z

Period
93.85 min
Inclination
53.1577°
Eccentricity
0.0001371
Mean motion
15.34406481 rev/d
Perigee alt
461.7 km
Apogee alt
463.6 km
Semi-major
6,840.8 km
B*
3.5875e-4
RAAN
84.4454°
Arg perigee
92.5808°
Mean anomaly
267.5352°
Rev number
3,034

§ Raw data

STARLINK-368861 68175U 26050J   26262.02170985  .00011766  00000+0  35875-3 0  99912 68175  53.1577  84.4454 0001371  92.5808 267.5352 15.34406481 30346

JSON: /api/v1/satellites/68175 · /tle

For live sub-satellite position, see the globe view (requires WebGL).

§ Visibility from observer

Set your observer location to see the next 7 days of passes ≥ 10°. The values pass through the URL so the page stays shareable.

No JS? Fill the form by hand. The geolocation button needs JavaScript.